STARLINK-5467 (55660 NORAD) Tracking and Keplerian Element Data

This shows tracking and keplerian element data for the satellite.

Feedback or suggestion? Click here.




ElementValue
Catalog55660
NameSTARLINK-5467
Epoch Orbit626
Epoch Day85.17040451
Epoch Year2023
RAAN47.5907
Inclination70.0003
Eccentricity0.0003331
Argument of Perigee258.3398
Mean Anonmoly101.7424
Mean Motion15.69952654
Decay Rate-6.73E-06
L11 55660U 23021AJ 23085.17040451 -.00000673 00000+0 -38262-5 0 9993
L22 55660 70.0003 47.5907 0003331 258.3398 101.7424 15.69952654 6269



Live tracking and technical data element details for STARLINK-5467 (NORAD 55660). STARLINK-5467 can be tracked NOW for your location showing map with azimuth and elevation plus other details from your city location.







IsCatalogInMostPopularTable: catalog: 55660, numindb: 2
Update: records affected: 1



GetName: 55660 STARLINK-5467

Hit Count: updated at: Tue, 28 Mar 2023 01:34:33 GMT